DW2047 Weather Reports


time (UTC)temp
F
wind
direction
speed
knots
gust
knots
rain 1hr
in
rain 24hr
in
rain mn
in
humidity
%
barometer
mb
20260510123502 67 200 0.0 0.0 0.00 0.00 0.00 92 1012.2
20260510123002 67 200 0.0 0.0 0.00 0.00 0.00 92 1012.2
20260510122541 66 200 0.0 0.0 0.00 0.00 0.00 92 1012.1
20260510122016 66 200 0.0 0.0 0.00 0.00 0.00 92 1012.0
20260510121522 66 200 0.0 0.0 0.00 0.00 0.00 92 1011.8
20260510121100 66 200 0.0 0.0 0.00 0.00 0.00 92 1011.8
20260510120529 66 200 0.0 0.0 0.00 0.00 0.00 92 1011.7
20260510120033 66 200 0.0 0.0 0.00 0.00 0.00 92 1011.5
20260510115508 66 200 0.0 0.0 0.00 0.00 0.00 91 1011.4
20260510115042 67 200 0.0 0.0 0.00 0.00 0.00 92 1011.4
20260510114545 67 200 0.9 0.0 0.00 0.00 0.00 92 1011.1
20260510114014 67 200 0.9 0.0 0.00 0.00 0.00 92 1011.0
20260510113553 66 200 0.0 0.0 0.00 0.00 0.00 92 1011.0
20260510113113 66 200 0.0 0.0 0.00 0.00 0.00 91 1011.0
20260510112535 66 200 0.0 0.0 0.00 0.00 0.00 91 1011.0
20260510112005 66 200 0.0 0.0 0.00 0.00 0.00 91 1011.1
20260510111617 66 200 0.0 0.0 0.00 0.00 0.00 91 1011.1
20260510111029 66 200 0.0 0.0 0.00 0.00 0.00 90 1011.0
20260510110503 67 200 0.0 0.0 0.00 0.00 0.00 90 1011.1
20260510110050 67 200 0.0 0.0 0.00 0.00 0.00 90 1011.1
20260510105513 67 200 0.0 0.0 0.00 0.00 0.00 90 1011.0
20260510105050 67 200 0.0 0.0 0.00 0.00 0.00 90 1011.0
20260510104553 67 200 0.0 0.0 0.00 0.00 0.00 89 1011.0
20260510104028 68 200 0.0 0.0 0.00 0.00 0.00 89 1011.0
20260510103608 68 200 0.0 0.0 0.00 0.00 0.00 89 1010.9
20260510103002 68 200 0.0 0.0 0.00 0.00 0.00 89 1010.9
20260510102537 69 200 0.0 0.0 0.00 0.00 0.00 89 1010.9
20260510102010 69 200 0.0 0.0 0.00 0.00 0.00 88 1010.8
20260510101600 69 200 0.0 0.0 0.00 0.00 0.00 88 1010.8
20260510101033 69 200 0.9 0.0 0.00 0.00 0.00 88 1010.6
20260510100513 69 200 0.9 0.0 0.00 0.00 0.00 88 1010.6
20260510100014 69 200 0.0 0.0 0.00 0.00 0.00 88 1010.6
20260510095554 70 200 0.0 0.0 0.00 0.00 0.00 87 1010.6
20260510095022 70 200 0.9 0.0 0.00 0.00 0.00 87 1010.5
20260510094526 70 200 1.7 0.0 0.00 0.00 0.00 87 1010.4
20260510094105 70 201 1.7 0.0 0.00 0.00 0.00 87 1010.3
20260510093538 70 161 1.7 0.0 0.00 0.00 0.00 87 1010.1
20260510093059 70 161 1.7 0.0 0.00 0.00 0.00 87 1010.1
20260510092518 70 161 2.6 0.0 0.00 0.00 0.00 86 1010.1
20260510092054 70 139 2.6 0.0 0.00 0.00 0.00 86 1010.1
20260510091556 70 138 1.7 0.0 0.00 0.00 0.00 86 1010.1
20260510091033 71 148 1.7 0.0 0.00 0.00 0.00 86 1010.1
20260510090505 71 148 2.6 0.0 0.00 0.00 0.00 85 1010.2
20260510090006 71 148 2.6 0.0 0.00 0.00 0.00 85 1010.2
20260510085544 71 142 1.7 0.0 0.00 0.00 0.00 85 1010.2
20260510085022 71 144 1.7 0.0 0.00 0.00 0.00 85 1010.2
20260510084529 71 142 1.7 0.0 0.00 0.00 0.00 85 1010.1
20260510084107 71 170 2.6 0.0 0.00 0.00 0.00 85 1010.1
20260510083539 71 178 2.6 0.0 0.00 0.00 0.00 84 1010.3
20260510083038 71 144 1.7 0.0 0.00 0.00 0.00 84 1010.2
20260510082513 72 147 2.6 0.0 0.00 0.00 0.00 84 1010.3
20260510082047 72 147 2.6 0.0 0.00 0.00 0.00 84 1010.4
20260510081535 72 146 2.6 0.0 0.00 0.00 0.00 83 1010.6
20260510081008 72 146 2.6 0.0 0.00 0.00 0.00 83 1010.6
20260510080542 72 151 2.6 0.0 0.00 0.00 0.00 83 1010.6
20260510080044 72 155 2.6 0.0 0.00 0.00 0.00 82 1010.7
20260510075504 72 147 1.7 0.0 0.00 0.00 0.00 82 1010.6
20260510075041 73 147 2.6 0.0 0.00 0.00 0.00 82 1010.6
20260510074544 73 150 1.7 0.0 0.00 0.00 0.00 81 1010.6
20260510074022 73 155 1.7 0.0 0.00 0.00 0.00 81 1010.7
20260510073558 73 155 1.7 0.0 0.00 0.00 0.00 81 1010.7
20260510073102 73 155 1.7 0.0 0.00 0.00 0.00 81 1010.8
20260510072538 73 156 2.6 0.0 0.00 0.00 0.00 81 1010.8
20260510072011 73 140 2.6 0.0 0.00 0.00 0.00 81 1010.8
20260510071521 73 160 2.6 0.0 0.00 0.00 0.00 81 1010.8
20260510071058 73 153 2.6 0.0 0.00 0.00 0.00 81 1010.9
20260510070533 73 150 2.6 0.0 0.00 0.00 0.00 80 1010.7
20260510070042 73 146 2.6 0.0 0.00 0.00 0.00 80 1010.7
20260510065522 73 144 0.9 0.0 0.00 0.00 0.00 79 1010.7
20260510065058 73 144 0.9 0.0 0.00 0.00 0.00 79 1010.6
20260510064608 74 144 1.7 0.0 0.00 0.00 0.00 79 1010.6
20260510064030 74 144 2.6 0.0 0.00 0.00 0.00 79 1010.5
20260510063505 74 133 1.7 0.0 0.00 0.00 0.00 78 1010.6
20260510063012 74 133 1.7 0.0 0.00 0.00 0.00 78 1010.6
20260510062551 74 133 1.7 0.0 0.00 0.00 0.00 78 1010.6
20260510062020 74 133 2.6 0.0 0.00 0.00 0.00 78 1010.6
20260510061524 73 132 1.7 0.0 0.00 0.00 0.00 79 1010.6
20260510061103 73 132 1.7 0.0 0.00 0.00 0.00 80 1010.6
20260510060539 73 132 0.9 0.0 0.00 0.00 0.00 80 1010.6
20260510060043 74 132 0.9 0.0 0.00 0.00 0.00 81 1010.6
20260510055518 74 132 1.7 0.0 0.00 0.00 0.00 82 1010.5
20260510055054 73 132 1.7 0.0 0.00 0.00 0.00 82 1010.5
20260510054556 73 132 1.7 0.0 0.00 0.00 0.00 84 1010.5
20260510054032 73 132 1.7 0.0 0.00 0.00 0.00 86 1010.5
20260510053502 73 132 0.9 0.0 0.00 0.00 0.00 87 1010.5
20260510053007 73 132 0.9 0.0 0.00 0.00 0.00 88 1010.5
20260510052547 72 132 0.9 0.0 0.00 0.00 0.00 89 1010.5
20260510052021 72 132 0.9 0.0 0.00 0.00 0.00 89 1010.4
20260510051524 72 132 0.9 0.0 0.00 0.00 0.00 89 1010.5
20260510051100 72 132 0.0 0.0 0.00 0.00 0.00 90 1010.5
20260510050533 72 132 0.0 0.0 0.00 0.00 0.00 89 1010.5
20260510050038 72 132 0.0 0.0 0.00 0.00 0.00 89 1010.5
20260510045510 72 132 0.0 0.0 0.00 0.00 0.00 89 1010.4
20260510045049 72 132 0.0 0.0 0.00 0.00 0.00 89 1010.4
20260510044628 72 132 0.0 0.0 0.00 0.00 0.00 88 1010.4
20260510044027 72 132 0.0 0.0 0.00 0.00 0.00 88 1010.4
20260510043603 72 132 0.0 0.0 0.00 0.00 0.00 88 1010.5
20260510043002 72 132 0.0 0.0 0.00 0.00 0.00 87 1010.6
20260510042541 73 132 0.0 0.0 0.00 0.00 0.00 87 1010.6
20260510042019 73 132 0.0 0.0 0.00 0.00 0.00 87 1010.6
20260510041522 73 132 0.0 0.0 0.00 0.00 0.00 86 1010.6
20260510041100 73 132 0.0 0.0 0.00 0.00 0.00 86 1010.6
20260510040530 73 132 0.0 0.0 0.00 0.00 0.00 85 1010.6
20260510040035 74 132 0.0 0.0 0.00 0.00 0.00 85 1010.5
20260510035505 74 132 0.0 0.0 0.00 0.00 0.00 84 1010.5
20260510035044 74 132 0.0 0.0 0.00 0.00 0.00 84 1010.4
20260510034545 74 132 0.0 0.0 0.00 0.00 0.00 83 1010.3
20260510034022 75 132 0.0 0.0 0.00 0.00 0.00 83 1010.3
20260510033557 75 132 0.0 0.0 0.00 0.00 0.00 83 1010.3
20260510033103 75 132 0.0 0.0 0.00 0.00 0.00 83 1010.3
20260510032536 75 132 0.0 0.0 0.00 0.00 0.00 82 1010.2
20260510032012 76 132 0.0 0.0 0.00 0.00 0.00 82 1010.1
20260510031601 76 132 0.0 0.0 0.00 0.00 0.00 82 1010.2
20260510031033 76 132 0.9 0.0 0.00 0.00 0.00 82 1010.1
20260510030509 76 132 0.9 0.0 0.00 0.00 0.00 82 1010.0
20260510030011 75 132 0.9 0.0 0.00 0.00 0.00 82 1010.0
20260510025549 76 132 0.0 0.0 0.00 0.00 0.00 82 1009.9
20260510025019 76 132 0.0 0.0 0.00 0.00 0.00 81 1009.8
20260510024525 76 132 0.0 0.0 0.00 0.00 0.00 80 1009.7
20260510024101 77 132 0.0 0.0 0.00 0.00 0.00 80 1009.6
20260510023531 77 132 0.0 0.0 0.00 0.00 0.00 79 1009.5
20260510023035 77 132 0.0 0.0 0.00 0.00 0.00 78 1009.4
20260510022505 78 132 0.0 0.0 0.00 0.00 0.00 77 1009.3
20260510022042 78 132 0.0 0.0 0.00 0.00 0.00 76 1009.3
20260510021548 79 132 0.0 0.0 0.00 0.00 0.00 76 1009.2
20260510021020 79 132 0.0 0.0 0.00 0.00 0.00 75 1009.1
20260510020606 79 132 0.0 0.0 0.00 0.00 0.00 74 1009.0
20260510020007 80 132 0.0 0.0 0.00 0.00 0.00 74 1009.0
20260510015547 80 132 0.0 0.0 0.00 0.00 0.00 73 1008.9
20260510015020 81 132 0.0 0.0 0.00 0.00 0.00 72 1008.8
20260510014528 81 132 0.0 0.0 0.00 0.00 0.00 72 1008.7
20260510014002 81 132 0.9 0.0 0.00 0.00 0.00 70 1008.6
20260510013544 81 132 1.7 0.0 0.00 0.00 0.00 70 1008.6
20260510013043 82 132 1.7 0.0 0.00 0.00 0.00 69 1008.6
20260510012518 82 132 1.7 0.0 0.00 0.00 0.00 68 1008.5
20260510012055 82 130 1.7 0.0 0.00 0.00 0.00 68 1008.5
20260510011542 82 130 1.7 0.0 0.00 0.00 0.00 68 1008.5
20260510011017 83 130 1.7 0.0 0.00 0.00 0.00 68 1008.5
20260510010553 83 130 0.9 0.0 0.00 0.00 0.00 68 1008.5
20260510010136 84 130 0.9 0.0 0.00 0.00 0.00 67 1008.5
20260510005530 84 130 1.7 0.0 0.00 0.00 0.00 67 1008.4
20260510005005 85 130 1.7 0.0 0.00 0.00 0.00 66 1008.4
20260510004505 85 130 0.9 0.0 0.00 0.00 0.00 65 1008.3
20260510004044 86 130 0.9 0.0 0.00 0.00 0.00 64 1008.3
20260510003520 86 130 1.7 0.0 0.00 0.00 0.00 63 1008.2
20260510003024 87 130 1.7 0.0 0.00 0.00 0.00 62 1008.1
20260510002601 87 130 1.7 0.0 0.00 0.00 0.00 61 1008.1
20260510002029 88 130 1.7 0.0 0.00 0.00 0.00 61 1008.1
20260510001535 88 130 2.6 0.0 0.00 0.00 0.00 59 1008.1
20260510001008 89 130 1.7 0.0 0.00 0.00 0.00 57 1008.0
20260510000544 89 129 0.0 0.0 0.00 0.00 0.00 54 1008.0
20260510000056 89 129 0.9 0.0 0.00 0.00 0.00 54 1007.9
20260509235536 90 129 0.9 0.0 0.00 0.00 0.00 52 1007.9
20260509235008 90 129 0.9 0.0 0.00 0.00 0.00 52 1007.9
20260509234516 90 129 0.9 0.0 0.00 0.00 0.00 51 1007.8
20260509234051 91 129 0.9 0.0 0.00 0.00 0.00 52 1007.8
20260509233524 91 129 0.9 0.0 0.00 0.00 0.00 48 1007.7
20260509233031 91 129 0.0 0.0 0.00 0.00 0.00 50 1007.7
20260509232510 91 129 0.9 0.0 0.00 0.00 0.00 48 1007.7
20260509232040 91 129 0.9 0.0 0.00 0.00 0.00 47 1007.7
20260509231532 91 129 0.9 0.0 0.00 0.00 0.00 48 1007.7
20260509231004 91 129 0.9 0.0 0.00 0.00 0.00 46 1007.6
20260509230540 91 129 0.0 0.0 0.00 0.00 0.00 50 1007.7
20260509230029 91 129 0.9 0.0 0.00 0.00 0.00 49 1007.7
20260509225503 91 129 1.7 0.0 0.00 0.00 0.00 48 1007.7
20260509225045 91 129 0.9 0.0 0.00 0.00 0.00 48 1007.8
20260509224551 92 129 0.9 0.0 0.00 0.00 0.00 47 1007.7
20260509224030 92 129 0.9 0.0 0.00 0.00 0.00 50 1007.8
20260509223503 92 129 0.0 0.0 0.00 0.00 0.00 47 1007.8
20260509223006 92 129 0.9 0.0 0.00 0.00 0.00 49 1007.8
20260509222547 91 130 0.9 0.0 0.00 0.00 0.00 47 1007.7
20260509222023 91 129 0.9 0.0 0.00 0.00 0.00 50 1007.7
20260509221529 91 130 0.9 0.0 0.00 0.00 0.00 50 1007.6
20260509221106 91 125 1.7 0.0 0.00 0.00 0.00 51 1007.6
20260509220536 91 121 0.9 0.0 0.00 0.00 0.00 50 1007.7
20260509220035 91 121 0.9 0.0 0.00 0.00 0.00 48 1007.8
20260509215512 91 121 1.7 0.0 0.00 0.00 0.00 46 1007.9
20260509215055 91 107 0.9 0.0 0.00 0.00 0.00 50 1007.8
20260509214556 91 159 0.0 0.0 0.00 0.00 0.00 48 1007.9
20260509214033 91 130 0.9 0.0 0.00 0.00 0.00 48 1007.9
20260509213607 91 130 1.7 0.0 0.00 0.00 0.00 47 1008.0
20260509213055 91 130 1.7 0.0 0.00 0.00 0.00 46 1008.1
20260509212527 91 68 0.9 0.0 0.00 0.00 0.00 48 1008.1
20260509212008 91 68 0.9 0.0 0.00 0.00 0.00 49 1008.2
20260509211557 91 68 0.9 0.0 0.00 0.00 0.00 47 1008.2
20260509211029 92 68 0.9 0.0 0.00 0.00 0.00 46 1008.3
20260509210509 92 68 1.7 0.0 0.00 0.00 0.00 47 1008.4
20260509210009 92 68 0.9 0.0 0.00 0.00 0.00 47 1008.5
20260509205549 91 5 0.9 0.0 0.00 0.00 0.00 47 1008.5
20260509205026 91 5 0.9 0.0 0.00 0.00 0.00 48 1008.7
20260509204525 90 5 0.9 0.0 0.00 0.00 0.00 50 1008.8
20260509204104 90 5 0.9 0.0 0.00 0.00 0.00 48 1008.8
20260509203536 89 5 0.9 0.0 0.00 0.00 0.00 54 1008.9
20260509203102 89 346 0.9 0.0 0.00 0.00 0.00 52 1009.0
20260509202510 89 344 0.9 0.0 0.00 0.00 0.00 52 1009.1
20260509202048 89 344 1.7 0.0 0.00 0.00 0.00 51 1009.2
20260509201535 89 346 1.7 0.0 0.00 0.00 0.00 53 1009.4
20260509201012 89 185 1.7 0.0 0.00 0.00 0.00 52 1009.5
20260509200548 89 272 0.9 0.0 0.00 0.00 0.00 53 1009.6
20260509200037 89 274 0.9 0.0 0.00 0.00 0.00 52 1009.6
20260509195515 89 275 0.9 0.0 0.00 0.00 0.00 52 1009.6
20260509195052 88 274 0.9 0.0 0.00 0.00 0.00 54 1009.6
20260509194540 88 272 0.9 0.0 0.00 0.00 0.00 55 1009.6
20260509194015 87 272 0.9 0.0 0.00 0.00 0.00 57 1009.5
20260509193549 87 272 0.9 0.0 0.00 0.00 0.00 54 1009.5
20260509193133 86 315 0.9 0.0 0.00 0.00 0.00 60 1009.6
20260509192527 86 315 0.9 0.0 0.00 0.00 0.00 61 1009.7
20260509192104 85 315 0.9 0.0 0.00 0.00 0.00 66 1009.7
20260509191612 85 309 1.7 0.0 0.00 0.00 0.00 67 1009.8
20260509191027 84 309 1.7 0.0 0.00 0.00 0.00 68 1010.0
20260509190501 84 126 1.7 0.0 0.00 0.00 0.00 71 1010.1
20260509190003 84 133 1.7 0.0 0.00 0.00 0.00 72 1010.3
20260509185547 84 86 0.9 0.0 0.00 0.00 0.00 72 1010.4
20260509185026 83 142 0.9 0.0 0.00 0.00 0.00 73 1010.4
20260509184531 82 142 0.9 0.0 0.00 0.00 0.00 73 1010.4
20260509184101 82 142 0.0 0.0 0.00 0.00 0.00 77 1010.5
20260509183536 82 142 0.0 0.0 0.00 0.00 0.00 77 1010.5
20260509183044 82 142 0.0 0.0 0.00 0.00 0.00 78 1010.6
20260509182513 81 142 0.0 0.0 0.00 0.00 0.00 79 1010.7
20260509182054 81 142 0.0 0.0 0.00 0.00 0.00 79 1010.7
20260509181602 80 142 0.0 0.0 0.00 0.00 0.00 78 1010.9
20260509181027 80 142 0.0 0.0 0.00 0.00 0.00 80 1011.0
20260509180605 80 142 0.0 0.0 0.00 0.00 0.00 80 1011.0
20260509180004 80 142 0.0 0.0 0.00 0.00 0.00 80 1011.0
20260509175540 80 142 0.0 0.0 0.00 0.00 0.00 80 1011.2
20260509175015 80 142 0.9 0.0 0.00 0.00 0.00 80 1011.1
20260509174516 80 142 0.9 0.0 0.00 0.00 0.00 81 1011.0
20260509174053 80 142 0.9 0.0 0.00 0.00 0.00 81 1011.0
20260509173525 80 142 0.9 0.0 0.00 0.00 0.00 84 1011.3
20260509173028 79 142 0.9 0.0 0.00 0.00 0.00 88 1011.2
20260509172503 78 142 0.0 0.0 0.00 0.00 0.00 85 1011.2
20260509172037 78 142 0.9 0.0 0.00 0.00 0.00 85 1011.4
20260509171540 78 142 0.9 0.0 0.00 0.00 0.00 84 1011.5
20260509171016 78 142 0.9 0.0 0.00 0.00 0.00 83 1011.6
20260509170552 79 142 0.0 0.0 0.00 0.00 0.00 84 1011.8
20260509170039 79 142 0.9 0.0 0.00 0.00 0.00 83 1011.7
20260509165512 80 142 0.0 0.0 0.00 0.00 0.00 82 1011.7
20260509165051 80 142 0.9 0.0 0.00 0.00 0.00 79 1011.5
20260509164601 80 142 1.7 0.0 0.00 0.00 0.00 79 1011.5
20260509164027 81 142 1.7 0.0 0.00 0.00 0.00 78 1011.4
20260509163604 81 142 1.7 0.0 0.00 0.00 0.00 77 1011.4
20260509163051 82 142 1.7 0.0 0.00 0.00 0.00 75 1011.2
20260509162524 83 105 1.7 0.0 0.00 0.00 0.00 74 1011.4
20260509162104 84 73 1.7 0.0 0.00 0.00 0.00 73 1011.4
20260509161502 84 71 1.7 0.0 0.00 0.00 0.00 73 1011.3
20260509161037 83 135 0.9 0.0 0.00 0.00 0.00 72 1011.1
20260509160510 83 201 0.0 0.0 0.00 0.00 0.00 72 1011.1
20260509160015 83 277 0.0 0.0 0.00 0.00 0.00 70 1011.1
20260509155550 83 277 0.0 0.0 0.00 0.00 0.00 69 1011.1
20260509155026 83 277 0.9 0.0 0.00 0.00 0.00 71 1011.1
20260509154529 83 277 1.7 0.0 0.00 0.00 0.00 71 1011.0
20260509154007 83 277 0.9 0.0 0.00 0.00 0.00 71 1010.9
20260509153542 83 290 0.9 0.0 0.00 0.00 0.00 72 1010.9
20260509153047 83 203 0.9 0.0 0.00 0.00 0.00 73 1010.8
20260509152520 83 203 1.7 0.0 0.00 0.00 0.00 72 1010.8
20260509152104 82 203 1.7 0.0 0.00 0.00 0.00 72 1010.8
20260509151609 82 203 0.9 0.0 0.00 0.00 0.00 73 1010.8
20260509151036 82 203 1.7 0.0 0.00 0.00 0.00 74 1010.7
20260509150506 82 197 1.7 0.0 0.00 0.00 0.00 75 1010.6
20260509150009 81 242 1.7 0.0 0.00 0.00 0.00 77 1010.5
20260509145548 81 173 1.7 0.0 0.00 0.00 0.00 77 1010.6
20260509145018 81 19 1.7 0.0 0.00 0.00 0.00 78 1010.5
20260509144530 80 240 1.7 0.0 0.00 0.00 0.00 79 1010.3
20260509144059 80 245 1.7 0.0 0.00 0.00 0.00 79 1010.2
20260509143529 80 146 1.7 0.0 0.00 0.00 0.00 80 1010.1
20260509143035 79 184 1.7 0.0 0.00 0.00 0.00 81 1010.0
20260509142511 79 128 2.6 0.0 0.00 0.00 0.00 83 1010.0
20260509142049 78 201 1.7 0.0 0.00 0.00 0.00 84 1009.9
20260509141536 77 166 1.7 0.0 0.00 0.00 0.00 86 1009.9
20260509141010 77 208 2.6 0.0 0.00 0.00 0.00 87 1009.8
20260509140547 76 150 2.6 0.0 0.00 0.00 0.00 87 1009.9
20260509140037 76 138 2.6 0.0 0.00 0.00 0.00 88 1010.0
20260509135514 75 228 1.7 0.0 0.00 0.00 0.00 89 1010.0
20260509135045 75 208 1.7 0.0 0.00 0.00 0.00 90 1010.0
20260509134551 75 207 1.7 0.0 0.00 0.00 0.00 91 1010.2
20260509134027 74 192 0.9 0.0 0.00 0.00 0.00 91 1010.1
20260509133606 74 194 0.9 0.0 0.00 0.00 0.00 91 1010.1
20260509133006 73 194 1.7 0.0 0.00 0.00 0.00 91 1010.0
20260509132541 73 211 2.6 0.0 0.00 0.00 0.00 91 1009.9
20260509132014 72 146 1.7 0.0 0.00 0.00 0.00 91 1009.7
20260509131519 72 204 0.9 0.0 0.00 0.00 0.00 90 1009.9
20260509131057 72 217 0.9 0.0 0.00 0.00 0.00 90 1009.9
20260509130530 72 217 0.9 0.0 0.00 0.00 0.00 90 1010.0
20260509130049 71 167 0.0 0.0 0.00 0.00 0.00 90 1009.9
20260509125504 71 167 0.0 0.0 0.00 0.00 0.00 90 1009.9
20260509125040 71 167 0.0 0.0 0.00 0.00 0.00 90 1010.0
20260509124545 71 167 0.0 0.0 0.00 0.00 0.00 91 1010.1
20260509124015 71 167 0.9 0.0 0.00 0.00 0.00 90 1010.2